Lapse_Rate
7.6 7.7 7.7 7.7 7.7 7.6 7.6 7.5 7.3 7.0 7.0 7.1 7.1 7.2 7.0 6.8 6.6 6.5 6.5 6.4 6.3 6.4 6.5 6.5 6.3 6.2 6.1 6.1 6.1 6.3 6.3 6.2 6.3 6.2 6.1 6.0 6.2 6.4 6.5 6.5 6.4 6.4 6.4
8.0 7.9 8.0 8.0 7.9 7.9 7.8 7.7 7.6 7.5 7.2 7.1 7.2 7.1 6.8 6.8 6.6 6.6 6.6 6.6 6.5 6.4 6.4 6.4 6.3 6.3 6.3 6.3 6.3 6.5 6.5 6.5 6.1 6.0 5.8 5.8 6.2 6.3 6.3 6.3 6.3 6.2 6.2
7.9 7.9 8.1 8.1 8.1 8.1 8.0 7.9 7.8 7.7 7.6 7.4 7.1 7.0 7.0 6.8 6.8 6.6 6.3 6.4 6.3 6.2 6.4 6.4 6.4 6.4 6.2 6.2 6.2 6.3 6.2 6.3 6.0 6.0 6.1 6.0 6.3 6.1 6.2 6.2 6.2 6.1 6.2
8.2 8.1 8.1 8.0 8.1 8.1 7.9 7.9 7.9 7.6 7.4 7.4 7.1 6.9 6.8 6.7 6.3 6.1 6.1 6.0 6.0 6.1 6.2 6.4 6.3 6.2 6.2 6.2 6.2 6.3 6.1 6.1 6.0 6.0 6.1 6.2 6.2 6.0 5.9 6.3 6.3 6.0 5.9
8.2 8.2 8.2 8.1 8.0 7.8 7.6 7.7 7.7 7.7 7.6 7.5 7.2 6.9 6.6 6.6 6.4 6.0 5.9 5.8 6.0 6.2 6.3 6.3 6.2 6.2 6.1 6.2 6.2 6.1 6.1 6.1 5.8 6.0 6.0 6.2 6.2 6.2 6.2 6.0 5.8 5.4 5.3
8.5 8.4 8.1 8.0 8.1 8.0 7.8 7.6 7.6 7.6 7.5 7.3 7.2 7.2 6.5 6.5 6.3 6.2 6.1 6.2 6.2 6.3 6.3 6.5 6.5 6.4 6.1 6.0 5.9 6.1 5.9 5.7 5.8 6.2 6.1 6.1 6.1 6.1 5.9 5.6 5.0 4.8 5.0
8.6 8.5 8.4 8.4 8.3 8.2 8.1 7.8 7.7 7.7 7.5 7.4 7.1 7.3 6.8 6.8 6.7 6.4 6.0 6.3 6.4 6.4 6.3 6.2 6.3 6.3 6.1 6.2 5.8 6.0 5.7 5.8 5.8 6.0 6.0 6.0 5.9 5.7 5.0 4.7 4.6 4.8 4.9
8.8 8.7 8.7 8.6 8.6 8.4 8.1 8.0 8.0 7.8 7.6 7.4 7.3 7.1 7.0 6.9 6.6 6.4 6.4 6.3 6.1 6.2 6.2 6.3 6.2 6.4 6.2 5.8 5.8 5.9 5.9 5.7 5.9 5.8 5.7 5.7 5.4 5.0 4.8 4.8 4.8 4.9 4.9
8.9 8.8 8.5 8.4 8.3 8.3 8.1 8.1 7.8 7.7 7.4 7.3 7.1 7.0 6.9 6.7 6.4 6.4 6.4 6.4 6.1 5.9 6.2 6.2 6.2 6.1 5.8 5.9 6.1 5.8 5.5 5.5 5.7 5.4 5.5 5.3 4.9 4.8 4.7 4.8 4.8 4.6 4.9
8.8 8.7 8.5 8.5 8.2 8.2 8.1 7.9 7.7 7.6 7.4 7.1 6.9 6.9 6.9 6.5 6.4 6.3 6.3 6.2 6.1 6.1 6.1 5.8 6.2 5.8 6.0 5.9 6.1 5.9 5.8 5.8 5.4 5.1 5.2 5.0 4.8 4.7 4.6 4.7 4.7 4.9 5.0
8.7 8.6 8.5 8.1 8.1 8.0 7.9 8.0 7.9 7.8 7.6 7.4 7.1 7.0 6.9 6.8 6.6 6.4 6.3 6.1 6.2 6.3 6.1 6.2 6.1 5.9 6.0 6.0 6.3 6.3 5.9 5.5 5.5 5.4 5.0 4.8 4.8 4.7 4.8 4.9 5.1 5.3 5.6
8.6 8.7 8.5 8.3 8.3 8.3 8.2 8.0 7.8 7.5 7.4 7.4 7.2 7.0 6.8 6.6 6.4 6.3 6.2 6.2 6.3 6.4 5.9 5.5 5.9 5.8 6.0 6.3 6.3 6.2 5.8 5.4 5.5 5.4 5.5 5.1 4.9 4.9 5.2 5.3 5.5 5.7 6.3
8.7 8.8 8.6 8.5 8.4 8.3 8.1 7.8 7.5 7.3 7.4 7.4 7.3 7.0 6.7 6.5 6.4 6.3 5.9 6.0 6.0 6.2 5.9 5.8 5.6 5.9 6.1 6.1 6.3 6.2 5.4 5.4 5.4 5.1 5.2 5.1 5.0 5.3 5.5 5.7 6.0 6.4 6.7
8.5 8.6 8.6 8.5 8.3 8.0 8.0 7.8 7.6 7.5 7.4 7.2 7.0 6.8 6.7 6.5 6.3 6.4 6.4 6.3 5.9 5.8 5.9 5.8 5.8 6.1 6.2 6.4 6.4 5.1 5.4 5.7 5.3 5.1 5.0 5.0 5.3 5.6 5.7 6.0 6.5 6.8 6.8
8.5 8.5 8.5 8.5 8.5 8.3 8.1 7.9 7.8 7.7 7.4 7.2 7.0 6.8 6.8 6.7 6.6 6.5 6.5 6.3 5.7 5.9 6.0 6.0 6.4 6.3 6.3 6.2 5.7 5.5 5.5 5.4 5.1 5.2 5.3 5.3 5.7 5.8 5.9 6.5 6.8 7.0 6.8
8.5 8.5 8.4 8.2 8.1 8.0 7.9 7.7 7.5 7.3 7.1 6.9 6.7 6.6 6.5 6.3 6.4 6.4 6.3 5.8 6.1 6.0 6.2 6.7 6.5 6.1 5.7 5.8 5.3 5.1 5.0 5.0 5.3 5.5 5.3 5.6 5.8 6.0 6.4 6.8 6.9 7.0 6.9
8.6 8.3 8.1 8.0 7.9 7.7 7.6 7.4 7.2 7.1 6.9 6.7 6.4 6.2 6.2 6.1 6.1 6.1 6.0 5.9 6.1 6.2 6.6 6.7 6.5 5.9 6.0 5.5 5.3 5.0 5.1 5.4 5.7 5.5 5.6 5.8 6.1 6.4 7.0 7.1 7.2 7.1 6.9
8.2 7.9 7.7 7.6 7.5 7.4 7.2 7.1 7.0 6.8 6.4 6.2 6.1 6.1 6.0 6.0 6.0 5.8 5.9 6.0 6.1 6.3 6.5 6.5 5.9 5.5 5.3 5.1 5.1 5.2 5.5 5.7 5.7 5.7 5.9 6.1 6.5 7.1 7.3 7.2 7.3 7.0 7.0
7.6 7.6 7.5 7.4 7.3 7.2 7.1 6.8 6.5 6.2 6.1 6.1 6.0 5.9 5.7 5.6 5.8 5.7 5.6 5.7 5.6 6.0 5.7 5.7 5.5 5.2 5.0 5.0 5.1 5.3 5.6 5.6 5.7 5.8 6.1 6.6 7.2 7.4 7.4 7.3 7.2 7.1 7.0
7.4 7.4 7.3 7.2 7.1 6.8 6.5 6.4 6.2 6.1 6.1 5.9 5.8 5.7 5.6 5.7 5.7 5.6 5.5 5.8 5.9 5.8 5.5 5.4 5.1 5.0 4.9 4.9 5.2 5.4 5.5 5.6 5.7 6.0 6.6 7.2 7.6 7.5 7.4 7.3 7.2 7.2 6.9
7.3 7.1 6.9 6.7 6.4 6.3 6.2 6.1 6.1 6.1 6.0 5.8 5.7 5.6 5.5 5.5 5.6 5.6 5.6 5.6 5.5 5.4 5.3 5.2 5.1 4.9 4.9 5.1 5.3 5.4 5.5 5.7 5.8 6.4 7.1 7.5 7.5 7.4 7.3 7.2 7.2 7.3 7.0
6.9 6.7 6.4 6.3 6.2 6.1 6.0 6.0 6.0 5.9 5.8 5.7 5.6 5.5 5.5 5.6 5.4 5.3 5.2 5.2 5.2 5.2 5.2 5.1 5.0 5.1 5.3 5.5 5.6 5.6 5.6 5.8 6.3 7.2 7.5 7.5 7.3 7.3 7.2 7.1 7.3 7.3 7.1
6.5 6.3 6.3 6.1 6.0 6.0 5.9 5.9 5.8 5.7 5.5 5.4 5.3 5.2 5.2 5.2 5.2 5.2 5.2 5.2 5.2 5.2 5.1 5.1 5.1 5.3 5.6 5.7 5.8 5.8 6.0 6.6 7.3 7.6 7.6 7.3 7.1 7.1 7.2 7.3 7.3 7.2 7.3
6.4 6.3 6.1 6.0 6.0 5.9 5.8 5.7 5.6 5.4 5.2 5.0 4.9 4.9 5.0 5.0 5.1 5.1 5.1 5.1 5.0 5.0 4.9 5.0 5.2 5.4 5.7 5.9 6.0 6.4 7.0 7.3 7.3 7.3 7.4 7.2 7.0 6.9 7.0 7.1 7.3 7.3 7.3
6.2 6.1 6.0 5.9 5.9 5.8 5.7 5.6 5.3 4.9 4.8 4.8 4.8 4.8 4.9 5.0 5.1 5.0 4.9 4.9 4.8 4.8 4.9 4.9 5.2 5.4 5.6 5.8 5.9 6.3 6.8 7.2 7.4 7.2 6.9 6.9 6.7 6.8 7.0 7.3 7.3 7.3 7.2
6.1 6.0 5.9 5.6 5.4 5.4 5.4 5.1 4.8 4.7 4.8 4.7 4.7 4.7 4.9 5.0 5.0 4.9 5.0 5.0 5.1 5.3 5.5 5.7 5.8 5.9 6.0 6.2 6.6 6.8 7.0 7.1 7.0 7.0 6.9 6.8 6.7 6.8 7.2 7.4 8.0 8.2 7.4
Wind_Speed
13 11 12 14 14 13 14 14 13 11 9 6 5 4 6 5 5 9 11 13 13 12 12 11 10 9 5 5 6 4 4 3 2 4 3 3 3 3 4 3 2 3 3
12 12 14 14 16 16 16 15 16 15 13 9 6 4 5 4 5 9 10 12 13 12 11 11 9 9 6 6 5 4 3 2 2 3 1 3 4 4 5 4 3 2 0
16 14 15 17 17 17 16 15 15 14 13 13 8 5 6 4 4 6 6 10 13 14 13 12 10 9 7 4 4 5 6 6 2 2 1 3 3 1 3 5 3 3 3
16 15 17 19 20 18 15 16 16 16 14 14 12 12 9 8 7 7 7 11 13 15 16 14 12 10 8 6 5 6 4 3 4 3 2 1 1 3 3 3 3 4 4
18 19 19 18 17 16 16 15 16 16 15 16 15 12 10 7 6 6 10 9 11 13 15 15 15 14 12 11 10 5 7 5 3 4 3 3 2 2 4 7 4 3 4
18 19 17 17 17 15 15 15 17 16 15 15 14 14 12 11 9 11 10 9 8 10 13 14 14 14 14 13 12 12 7 5 4 3 4 3 3 3 4 5 6 6 6
18 18 19 19 18 18 18 15 17 17 16 17 16 15 12 12 14 14 10 10 9 9 11 15 13 13 12 12 13 10 7 7 6 6 4 4 4 3 4 5 6 6 5
16 19 21 18 18 19 19 18 18 18 17 17 17 13 11 7 8 12 9 7 8 8 17 15 14 12 11 13 12 10 7 6 5 7 5 4 4 4 5 5 5 7 7
13 16 17 18 17 17 18 18 17 17 17 19 15 15 13 13 12 12 10 8 8 9 14 15 14 13 14 13 12 5 6 5 5 5 6 6 5 4 5 5 6 7 9
6 10 12 14 14 15 13 13 16 19 18 16 14 12 11 11 11 11 13 13 11 13 14 13 9 12 11 13 10 5 5 6 5 5 7 6 6 6 5 6 6 6 8
7 5 8 10 12 11 14 16 16 16 15 14 13 12 12 13 13 13 12 11 10 11 12 9 10 9 7 8 6 6 6 8 8 7 8 9 8 6 6 6 6 7 6
6 5 5 5 7 10 10 11 11 12 11 9 11 12 11 12 12 13 12 13 15 15 11 11 11 12 10 8 7 7 7 9 10 10 9 10 7 10 9 7 9 8 7
3 3 2 3 4 5 6 8 8 10 7 8 8 9 9 10 12 12 11 12 12 11 10 10 12 10 9 7 5 6 9 10 11 11 11 11 9 10 9 9 8 7 6
2 2 2 3 4 6 7 7 7 7 7 8 8 9 9 10 10 11 12 12 11 10 9 9 7 6 5 2 1 8 12 11 11 12 12 12 11 12 11 10 10 8 7
8 7 5 4 2 2 2 2 2 5 7 8 8 8 8 9 9 9 8 8 9 8 8 9 8 4 4 3 4 12 12 12 13 13 13 12 15 15 12 7 9 9 8
11 12 12 11 9 6 3 2 1 1 2 3 3 4 6 7 7 8 7 6 5 6 8 8 7 5 2 4 12 11 11 12 12 13 13 13 13 14 14 15 11 9 9
10 11 10 9 8 9 7 7 4 3 3 2 2 4 6 7 7 7 8 7 8 7 8 6 4 2 7 6 13 11 9 10 11 12 12 11 9 11 11 12 13 13 13
8 9 9 9 10 9 10 9 9 8 8 7 6 6 8 9 9 10 11 10 8 6 4 3 4 6 5 7 12 13 13 12 13 12 13 13 13 13 12 10 11 11 11
8 9 9 10 10 11 10 12 12 11 11 10 9 9 10 12 13 13 10 7 5 3 4 6 5 6 6 10 12 11 11 12 13 11 12 13 14 13 16 11 11 11 11
8 9 10 10 11 11 11 14 13 13 13 12 11 11 12 12 11 9 6 3 1 2 2 4 6 8 11 11 13 11 7 11 9 10 10 13 14 11 16 13 11 10 11
10 10 11 13 12 11 14 16 15 15 12 12 11 10 9 7 5 4 3 2 2 2 4 6 8 9 11 13 13 13 9 8 9 8 8 9 16 15 18 18 11 11 9
11 12 14 14 13 13 15 15 13 10 9 10 10 9 8 6 5 6 5 4 4 6 7 7 8 7 9 11 12 14 14 13 9 10 9 9 15 19 19 15 18 17 10
13 13 15 16 13 12 12 13 9 10 10 10 9 8 8 7 7 6 6 5 5 5 6 7 8 9 8 9 12 15 16 15 10 9 12 15 15 18 17 23 20 15 10
13 14 15 15 13 11 11 10 9 9 10 10 9 8 8 6 6 5 5 5 6 7 7 8 9 10 10 10 10 10 11 11 10 13 12 13 13 14 13 11 13 10 10
13 12 13 13 13 12 12 11 10 9 9 8 7 7 6 7 7 7 6 6 6 8 8 8 8 9 10 10 18 17 12 11 13 13 10 9 10 11 11 11 11 10 11
13 13 14 14 12 12 11 10 9 9 8 7 6 6 5 6 6 6 6 7 9 10 11 13 11 9 15 25 27 27 26 26 21 12 11 11 11 10 11 11 10 10 12
Wind_Direction
208 205 201 196 196 200 199 198 195 193 179 169 174 182 186 168 177 179 175 167 163 160 145 133 131 141 144 134 136 131 130 122 154 155 158 149 137 167 160 161 147 101 81
223 211 202 204 209 204 204 201 199 186 188 183 179 180 175 161 182 170 166 164 154 149 142 143 152 153 138 140 160 172 147 116 187 197 214 229 198 205 199 196 202 190 230
221 215 207 206 208 209 204 204 204 194 192 185 157 120 110 129 168 164 153 157 155 149 149 156 154 142 135 147 159 189 191 171 172 209 223 227 266 253 184 212 225 219 241
221 219 207 208 207 207 205 204 198 196 197 184 185 182 189 180 196 179 162 159 163 155 155 156 150 144 149 153 162 185 187 193 160 148 160 177 275 278 268 196 229 246 267
218 216 215 216 211 204 205 203 200 197 193 192 194 191 189 181 162 159 150 159 160 165 163 160 157 157 160 159 157 160 184 187 167 182 171 195 183 205 265 290 283 268 268
220 222 220 212 212 206 204 202 202 203 195 193 190 195 190 174 170 173 171 171 166 169 173 169 163 162 162 165 168 166 190 177 150 172 180 212 236 248 260 275 285 287 289
222 216 210 207 206 201 201 199 202 205 198 197 195 200 196 179 184 177 179 173 172 183 183 173 169 173 170 180 174 160 184 173 169 183 193 205 227 241 254 265 281 283 293
223 220 218 212 207 201 201 201 200 206 200 196 201 195 183 182 188 195 197 192 183 181 175 180 174 165 176 171 203 176 185 168 177 194 209 226 231 226 238 254 278 281 276
227 226 222 216 211 204 202 200 202 208 204 204 202 201 193 191 199 195 191 192 183 179 175 177 176 169 191 190 194 195 175 185 197 215 225 234 241 237 237 236 241 267 291
229 221 221 218 214 212 205 199 208 211 211 208 208 204 200 196 193 185 190 191 184 176 177 181 165 200 185 197 186 180 193 200 209 223 228 229 237 236 226 230 236 245 267
266 234 215 215 211 204 195 201 210 216 215 205 202 196 195 196 192 191 191 185 172 169 181 173 190 187 183 173 194 201 206 211 214 217 230 235 225 227 221 228 237 243 250
264 249 203 199 202 203 202 206 208 212 208 190 200 210 200 195 199 200 189 178 178 180 183 177 181 176 177 186 202 218 223 220 220 225 224 235 219 225 228 231 235 243 250
272 286 80 165 193 190 177 193 199 212 194 198 205 205 204 203 212 205 195 184 176 168 173 181 179 182 176 190 209 231 241 232 233 234 230 234 223 229 228 229 241 244 245
56 78 107 151 172 187 201 200 189 190 179 187 200 204 203 207 207 204 194 180 174 165 169 174 175 157 133 131 284 271 260 246 244 245 240 237 228 232 231 229 237 244 241
65 73 94 109 133 189 214 232 197 173 178 187 198 203 194 193 191 173 150 144 154 156 161 146 140 126 107 209 241 261 262 258 253 247 243 237 230 225 226 224 239 231 238
81 73 71 68 54 33 13 10 18 115 176 196 208 184 172 165 156 135 127 125 125 121 144 132 138 142 231 253 260 258 273 269 262 261 252 240 220 217 208 210 225 233 236
88 79 70 62 53 48 45 45 48 90 107 101 105 127 134 133 125 123 124 122 124 118 115 112 72 310 288 265 275 286 291 280 274 266 259 244 224 212 217 211 212 208 214
86 76 76 76 63 66 68 71 69 72 77 79 90 111 120 116 116 110 103 98 102 91 94 86 239 269 274 280 273 280 290 283 277 268 259 245 229 211 211 215 218 223 222
89 80 73 72 70 68 77 85 81 83 83 83 88 96 107 111 114 110 103 98 100 136 194 231 255 253 266 265 270 287 292 281 278 272 258 243 231 208 199 206 216 226 235
92 91 84 85 81 74 84 84 82 84 83 86 90 95 99 98 94 96 102 119 149 245 265 258 248 255 272 274 268 274 284 281 277 273 258 228 229 201 193 207 215 227 240
105 103 95 85 81 87 89 84 86 86 92 91 87 82 78 81 80 77 57 41 9 316 283 279 280 276 275 281 269 271 278 271 280 271 262 240 218 213 206 209 212 217 232
111 102 94 86 83 87 92 92 87 88 82 78 73 66 63 59 53 46 30 4 341 317 306 298 297 291 287 275 279 271 261 264 258 263 260 250 221 212 213 214 220 219 207
106 102 99 92 79 77 85 89 79 83 81 75 66 57 55 46 39 32 17 356 348 328 317 312 311 311 315 310 302 290 287 273 256 251 250 246 229 222 223 217 215 207 213
114 110 103 96 88 79 76 78 78 81 79 73 63 53 51 40 34 30 20 3 358 346 338 331 324 320 321 323 326 320 313 303 283 271 262 245 237 229 228 226 215 213 214
118 113 108 101 93 85 74 65 66 75 76 71 58 46 37 26 20 25 15 9 6 357 343 341 337 333 331 336 331 327 318 312 308 297 273 254 241 237 230 227 219 213 216
123 113 109 106 98 88 77 65 59 62 67 62 45 34 29 22 17 8 358 32 4 360 2 356 351 338 342 340 337 330 324 316 302 294 285 272 248 242 238 222 217 214 218